This is the latest recevied weather packets stored in our database for station/object N9ALD. If no packets are shown the sender has not sent any weather packets the latest 10 day(s).
| Time | Temp. | Humidity | Pressure | Rain* | Wind** | Luminosity | Snow |
|---|---|---|---|---|---|---|---|
| 1777564708 | 12.78° C | 61% | 1014.6 hPa | 0 mm | - | 693 W/m² | - |
| 1777564403 | 12.78° C | 56% | 1014.8 hPa | 0 mm | - | 675 W/m² | - |
| 1777564100 | 13.33° C | 47% | 1014.9 hPa | 0 mm | - | 663 W/m² | - |
| 1777563796 | 12.78° C | 57% | 1014.9 hPa | 0 mm | - | 658 W/m² | - |
| 1777563492 | 12.78° C | 58% | 1014.8 hPa | 0 mm | - | 656 W/m² | - |
| 1777563191 | 12.78° C | 57% | 1014.9 hPa | 0 mm | - | 643 W/m² | - |
| 1777562888 | 12.78° C | 54% | 1014.8 hPa | 0 mm | - | 629 W/m² | - |
| 1777562584 | 12.22° C | 55% | 1014.8 hPa | 0 mm | - | 620 W/m² | - |
| 1777562283 | 12.22° C | 57% | 1014.8 hPa | 0 mm | - | 610 W/m² | - |
| 1777561980 | 12.22° C | 60% | 1014.9 hPa | 0 mm | - | 601 W/m² | - |
| 1777561677 | 12.22° C | 60% | 1014.7 hPa | 0 mm | - | 591 W/m² | - |
| 1777561372 | 11.67° C | 59% | 1014.8 hPa | 0 mm | - | 580 W/m² | - |
| 1777561068 | 12.22° C | 59% | 1014.9 hPa | 0 mm | - | 568 W/m² | - |
| 1777560763 | 11.67° C | 60% | 1014.9 hPa | 0 mm | - | 560 W/m² | - |
| 1777560461 | 11.67° C | 60% | 1014.9 hPa | 0 mm | - | 547 W/m² | - |
| 1777560158 | 11.11° C | 62% | 1014.8 hPa | 0 mm | - | 536 W/m² | - |
| 1777559855 | 11.11° C | 61% | 1014.8 hPa | 0 mm | - | 523 W/m² | - |
| 1777559551 | 11.11° C | 62% | 1014.7 hPa | 0 mm | - | 510 W/m² | - |
| 1777559248 | 11.11° C | 63% | 1014.7 hPa | 0 mm | - | 497 W/m² | - |
| 1777558944 | 10.56° C | 61% | 1014.7 hPa | 0 mm | - | 486 W/m² | - |
| 1777558640 | 10.56° C | 63% | 1014.7 hPa | 0 mm | - | 470 W/m² | - |
| 1777558335 | 10.56° C | 66% | 1014.8 hPa | 0 mm | - | 456 W/m² | - |
| 1777558032 | 10° C | 67% | 1014.6 hPa | 0 mm | - | 446 W/m² | - |
| 1777557729 | 9.44° C | 68% | 1014.7 hPa | 0 mm | - | 432 W/m² | - |
| 1777557425 | 9.44° C | 70% | 1014.6 hPa | 0 mm | - | 415 W/m² | - |
* Rain latest hour (hover to see other rain measurements)
** Current wind speed in m/s (hover to see current wind gust speed)